Flag for Poland Weather past 2 weeks in Płock, Poland

Now
56 °F

Cool.


Feels Like: 57 °F
Forecast: 46 / 73 °F
Wind: 3 mph from Southwest

Location: Plock

Current Time: Jul 31, 2015 at 3:14:15 AM

Latest Report: Jul 31, 2015 at 2:00 AM


Visibility: 25 mi

Pressure: 29.91 "Hg

Humidity: 64%

Dew point: 44 °F

Location of PłockLocation

Historic Weather in Płock — Graph

°F

Płock temperature yesterday

Maximum temperature yesterday: 67 °F (at 6:00 PM)
Minimum temperature yesterday: 51 °F (at 6:00 AM)
Average temperature yesterday: 61 °F

Past Weeks' High & Low Weather Summary

 TemperatureHumidityPressure
High93 °F (Jul 18, 3:00 PM)97% (Jul 16, 6:00 AM)30.10 "Hg (Jul 16, 6:00 AM)
Low47 °F (Jul 27, 4:00 AM)30% (Jul 18, 1:00 PM)29.61 "Hg (Jul 25, 3:00 PM)
Average67 °F67%29.86 "Hg
* Reported Jul 16 1:00 AM — Jul 31 1:00 AM, Płock, Weather by CustomWeather, © 2015

Note: Actual official high and low records may vary slightly from our data, if they occured in-between our weather recording intervals... More about our weather records

Advertising

Płock weather history for previous 24 hours

 ConditionsComfort  
Time TempWeatherWind HumidityBarometerVisibility
1:00 AM
Fri, Jul 31
56 °FCool.5 mph65%29.90 "Hg28 mi
12:00 AM54 °FCool.3 mph70%29.90 "Hg31 mi
10:00 PM
Thu, Jul 30
60 °FRefreshingly cool.3 mph58%29.88 "Hg25 mi
9:00 PM62 °FMild.5 mph52%29.87 "Hg28 mi
8:00 PM64 °FMild.6 mph49%29.85 "Hg31 mi
7:00 PM65 °FMild.6 mph51%29.85 "Hg14 mi
6:00 PM67 °FMild.5 mph48%29.83 "Hg7 mi
5:00 PM65 °FMild.7 mph49%29.83 "Hg9 mi
4:00 PM66 °FMild.6 mph48%29.83 "Hg18 mi
3:00 PM66 °FMild.7 mph48%29.82 "Hg19 mi
2:00 PM66 °FMild.8 mph46%29.81 "Hg22 mi
1:00 PM64 °FMild.6 mph49%29.80 "Hg28 mi
12:00 PM64 °FMild.6 mph54%29.79 "Hg16 mi
10:00 AM62 °FCool.6 mph63%29.78 "Hg17 mi
9:00 AM60 °FCool.6 mph66%29.78 "Hg17 mi
8:00 AM57 °FCool.6 mph77%29.78 "Hg19 mi
7:00 AM54 °FCool.3 mph85%29.78 "Hg25 mi
6:00 AM51 °FCool.3 mph90%29.79 "Hg17 mi
4:00 AM52 °FCool.3 mph91%29.77 "Hg14 mi
3:00 AM55 °FCool.2 mph83%29.76 "Hg28 mi
Weather by CustomWeather, © 2015

See weather overviewHow to use our weather pages